TimeCDT,TemperatureF,Dew PointF,Humidity,Sea Level PressureIn,VisibilityMPH,Wind Direction,Wind SpeedMPH,Gust SpeedMPH,PrecipitationIn,Events,Conditions,WindDirDegrees,DateUTC
12:52 AM,52.0,46.9,83,30.01,10.0,NW,8.1,-,N/A,,Clear,320,2013-07-28 05:52:00
1:52 AM,48.0,46.0,93,30.02,10.0,WNW,6.9,-,N/A,,Clear,300,2013-07-28 06:52:00
2:52 AM,46.9,45.0,93,30.02,10.0,WNW,6.9,-,N/A,,Clear,290,2013-07-28 07:52:00
3:52 AM,46.9,45.0,93,30.01,10.0,WNW,5.8,-,N/A,,Clear,300,2013-07-28 08:52:00
4:52 AM,45.0,44.1,97,30.02,10.0,NW,6.9,-,N/A,,Clear,310,2013-07-28 09:52:00
5:52 AM,45.0,44.1,97,30.03,10.0,NW,5.8,-,N/A,,Clear,310,2013-07-28 10:52:00
6:52 AM,46.0,45.0,96,30.04,10.0,WNW,5.8,-,N/A,,Clear,300,2013-07-28 11:52:00
7:52 AM,51.1,48.0,89,30.04,10.0,WNW,4.6,-,N/A,,Clear,300,2013-07-28 12:52:00
8:52 AM,55.9,48.0,75,30.05,10.0,NNW,8.1,-,N/A,,Clear,330,2013-07-28 13:52:00
9:52 AM,61.0,46.9,60,30.05,10.0,NNW,10.4,-,N/A,,Clear,330,2013-07-28 14:52:00
10:52 AM,62.1,48.0,60,30.05,10.0,NW,11.5,-,N/A,,Clear,310,2013-07-28 15:52:00
11:52 AM,64.0,48.0,56,30.05,10.0,NNW,10.4,-,N/A,,Clear,340,2013-07-28 16:52:00
12:52 PM,66.9,50.0,54,30.04,10.0,North,10.4,18.4,N/A,,Clear,350,2013-07-28 17:52:00
1:52 PM,69.1,50.0,51,30.04,10.0,NNW,10.4,16.1,N/A,,Partly Cloudy,340,2013-07-28 18:52:00
2:52 PM,70.0,50.0,49,30.04,10.0,Variable,5.8,-,N/A,,Clear,0,2013-07-28 19:52:00
3:52 PM,71.1,48.9,45,30.03,10.0,NNE,8.1,-,N/A,,Clear,30,2013-07-28 20:52:00
4:52 PM,72.0,50.0,46,30.02,10.0,North,9.2,-,N/A,,Partly Cloudy,360,2013-07-28 21:52:00
5:52 PM,72.0,48.0,43,30.02,10.0,NE,4.6,-,N/A,,Clear,40,2013-07-28 22:52:00
6:52 PM,72.0,48.9,44,30.03,10.0,North,8.1,-,N/A,,Partly Cloudy,360,2013-07-28 23:52:00
7:52 PM,69.1,54.0,58,30.04,10.0,Calm,Calm,-,N/A,,Partly Cloudy,0,2013-07-29 00:52:00
8:52 PM,63.0,53.1,70,30.05,10.0,Calm,Calm,-,N/A,,Clear,0,2013-07-29 01:52:00
9:52 PM,57.0,52.0,83,30.06,10.0,Calm,Calm,-,N/A,,Clear,0,2013-07-29 02:52:00
10:52 PM,55.0,52.0,89,30.08,10.0,Calm,Calm,-,N/A,,Clear,0,2013-07-29 03:52:00
11:52 PM,52.0,50.0,93,30.09,10.0,WSW,3.5,-,N/A,,Clear,250,2013-07-29 04:52:00